星链-2314 (STARLINK-2314 )

导读 | 豆包AI

STARLINK-2314是美国太空探索技术公司SpaceX于2021年3月11日发射的星链低轨互联网卫星,属于星链卫星互联网星座项目的组网卫星。星链计划计划发射数万颗低轨卫星,为全球偏远地区提供高速低延迟宽带互联网接入服务,星链目前已成为全球规模最大的低轨道卫星星座。

基本信息
目录编号:
47788
目录名称:
STARLINK-2314
国际标识:
2021-018B
轨道中心:
EARTH
卫星名称:
星链-2314
卫星全名:
星链-2314 (STARLINK-2314 )
卫星状态:
在轨 (已飞行1829 天)
发射日期:
2021-03-11 UTC
国别 :
美国 (US)
星等 :
--
轨道信息
数据来源 国际轨道数据
星历时间: 2026-03-14T09:17:11+0800
16小时前
查看轨道信息
半长轴: 6853.201km
偏心率: 0.0001078
轨道倾角: 53.159°
近地点辐角 249.382°
升交点赤经 199.466°
平近点角 110.706°
近地点: 474.325km
远地点: 475.803km
周期: 94.102分钟
每日圈数: 15.302507
详细信息
固有亮度:
5
最大亮度:
2.5
卫星平台:
Starlink V1.0
覆盖范围:
全球
运营商:
太空探索技术公司
运营商所在国:
美国
制造商(研发单位):
太空探索技术公司
制造商所在国:
美国
使用方式:
暂无
卫星简介
星链(Starlink)计划是由太空探索技术公司(SpaceX)提出的一个巨型低轨卫星互联网星座项目,计划在2019年至2024年间在太空搭建由约1.2万颗卫星组成的“星链”网络,其中1584颗将部署在地球上空550千米处的近地轨道,并从2020年开始工作。该卫星仍在工作。
2D轨道图
3D轨道图
轨道高度分析图
轨道倾角分析图
轨道综合分析图
查看轨道综合分析图